Time,TemperatureF,DewpointF,PressureIn,WindDirection,WindDirectionDegrees,WindSpeedMPH,WindSpeedGustMPH,Humidity,HourlyPrecipIn,Conditions,Clouds,dailyrainin,SolarRadiationWatts/m^2,SoftwareType,DateUTC
2013-09-22 00:22:00,52.0,37.0,-100.00,WNW,289,6.0,22.0,56,-99.99,,,0.00,0.000000,,2013-09-22 07:22:00,
2013-09-22 00:32:00,52.0,37.0,-100.00,WNW,289,6.0,22.0,56,-99.99,,,0.00,0.000000,,2013-09-22 07:32:00,
2013-09-22 01:22:00,53.0,38.0,-100.00,WNW,291,10.0,22.0,56,-99.99,,,0.00,0.000000,,2013-09-22 08:22:00,
2013-09-22 01:32:00,53.0,38.0,-100.00,WNW,291,10.0,22.0,56,-99.99,,,0.00,0.000000,,2013-09-22 08:32:00,
2013-09-22 02:22:00,51.0,35.0,-100.00,WNW,301,10.0,26.0,54,-99.99,,,0.00,0.000000,,2013-09-22 09:22:00,
2013-09-22 02:33:00,51.0,35.0,-100.00,WNW,301,10.0,26.0,54,-99.99,,,0.00,0.000000,,2013-09-22 09:33:00,
2013-09-22 03:23:00,51.0,35.0,-100.00,WNW,285,11.0,27.0,55,-99.99,,,0.00,0.000000,,2013-09-22 10:23:00,
2013-09-22 03:33:00,51.0,35.0,-100.00,WNW,285,11.0,27.0,55,-99.99,,,0.00,0.000000,,2013-09-22 10:33:00,
2013-09-22 04:00:00,50.0,33.0,-100.00,WNW,296,9.0,24.0,51,-99.99,,,0.00,0.000000,,2013-09-22 11:00:00,
2013-09-22 04:52:00,50.0,33.0,-100.00,WNW,296,9.0,24.0,51,-99.99,,,0.00,0.000000,,2013-09-22 11:52:00,
2013-09-22 05:22:00,49.0,34.0,-100.00,West,279,7.0,21.0,55,-99.99,,,-99.99,0.000000,,2013-09-22 12:22:00,
2013-09-22 05:32:00,49.0,34.0,-100.00,West,279,7.0,21.0,55,-99.99,,,-99.99,0.000000,,2013-09-22 12:32:00,
2013-09-22 07:00:00,48.0,34.0,-100.00,WNW,283,7.0,15.0,57,-99.99,,,0.00,0.000000,,2013-09-22 14:00:00,
2013-09-22 07:52:00,48.0,34.0,-100.00,WNW,283,7.0,15.0,57,-99.99,,,0.00,0.000000,,2013-09-22 14:52:00,
2013-09-22 08:00:00,47.0,31.0,-100.00,WNW,296,11.0,18.0,54,0.00,,,0.00,4.000000,,2013-09-22 15:00:00,
2013-09-22 08:23:00,47.0,31.0,-100.00,WNW,296,11.0,18.0,54,0.00,,,0.00,4.000000,,2013-09-22 15:23:00,
2013-09-22 08:34:00,47.0,31.0,-100.00,WNW,296,11.0,18.0,54,0.00,,,0.00,4.000000,,2013-09-22 15:34:00,
2013-09-22 08:55:00,47.0,31.0,-100.00,WNW,296,11.0,18.0,54,0.00,,,0.00,4.000000,,2013-09-22 15:55:00,
2013-09-22 10:00:00,58.0,31.0,-100.00,ESE,123,5.0,16.0,36,-99.99,,,0.00,411.000000,,2013-09-22 17:00:00,
2013-09-22 10:43:00,58.0,31.0,-100.00,ESE,123,5.0,16.0,36,-99.99,,,0.00,411.000000,,2013-09-22 17:43:00,
2013-09-22 10:53:00,58.0,31.0,-100.00,ESE,123,5.0,16.0,36,-99.99,,,0.00,411.000000,,2013-09-22 17:53:00,
2013-09-22 11:00:00,61.0,32.0,-100.00,SE,138,3.0,12.0,34,0.00,,,0.00,653.000000,,2013-09-22 18:00:00,
2013-09-22 11:42:00,61.0,32.0,-100.00,SE,138,3.0,12.0,34,0.00,,,0.00,653.000000,,2013-09-22 18:42:00,
2013-09-22 11:52:00,61.0,32.0,-100.00,SE,138,3.0,12.0,34,0.00,,,0.00,653.000000,,2013-09-22 18:52:00,
2013-09-22 12:00:00,61.0,35.0,-100.00,West,260,11.0,22.0,38,0.00,,,0.00,909.000000,,2013-09-22 19:00:00,
2013-09-22 12:42:00,61.0,35.0,-100.00,West,260,11.0,22.0,38,0.00,,,0.00,909.000000,,2013-09-22 19:42:00,
2013-09-22 12:52:00,61.0,35.0,-100.00,West,260,11.0,22.0,38,0.00,,,0.00,909.000000,,2013-09-22 19:52:00,
2013-09-22 13:00:00,62.0,37.0,-100.00,WSW,254,14.0,26.0,40,0.00,,,0.00,1075.000000,,2013-09-22 20:00:00,
2013-09-22 13:42:00,62.0,37.0,-100.00,WSW,254,14.0,26.0,40,0.00,,,0.00,1075.000000,,2013-09-22 20:42:00,
2013-09-22 13:52:00,62.0,37.0,-100.00,WSW,254,14.0,26.0,40,0.00,,,0.00,1075.000000,,2013-09-22 20:52:00,
2013-09-22 14:00:00,62.0,37.0,-100.00,West,267,17.0,26.0,39,0.00,,,0.00,1142.000000,,2013-09-22 21:00:00,
2013-09-22 14:54:00,62.0,37.0,-100.00,West,267,17.0,26.0,39,0.00,,,0.00,1142.000000,,2013-09-22 21:54:00,
2013-09-22 15:00:00,65.0,38.0,-100.00,West,271,15.0,26.0,37,0.00,,,0.00,1118.000000,,2013-09-22 22:00:00,
2013-09-22 15:43:00,65.0,38.0,-100.00,West,271,15.0,26.0,37,0.00,,,0.00,1118.000000,,2013-09-22 22:43:00,
2013-09-22 15:53:00,65.0,38.0,-100.00,West,271,15.0,26.0,37,0.00,,,0.00,1118.000000,,2013-09-22 22:53:00,
2013-09-22 17:00:00,63.0,38.0,-100.00,West,261,14.0,30.0,39,-99.99,,,0.00,832.000000,,2013-09-23 00:00:00,
2013-09-22 17:23:00,63.0,38.0,-100.00,West,261,14.0,30.0,39,-99.99,,,0.00,832.000000,,2013-09-23 00:23:00,
2013-09-22 17:32:00,63.0,38.0,-100.00,West,261,14.0,30.0,39,-99.99,,,0.00,832.000000,,2013-09-23 00:32:00,
2013-09-22 17:42:00,63.0,38.0,-100.00,West,261,14.0,30.0,39,-99.99,,,0.00,832.000000,,2013-09-23 00:42:00,
2013-09-22 17:53:00,63.0,38.0,-100.00,West,261,14.0,30.0,39,-99.99,,,0.00,832.000000,,2013-09-23 00:53:00,
2013-09-22 18:00:00,62.0,37.0,-100.00,WNW,288,16.0,25.0,40,0.00,,,0.00,596.000000,,2013-09-23 01:00:00,
2013-09-22 18:22:00,62.0,37.0,-100.00,WNW,288,16.0,25.0,40,0.00,,,0.00,596.000000,,2013-09-23 01:22:00,
2013-09-22 18:32:00,62.0,37.0,-100.00,WNW,288,16.0,25.0,40,0.00,,,0.00,596.000000,,2013-09-23 01:32:00,
2013-09-22 18:43:00,62.0,37.0,-100.00,WNW,288,16.0,25.0,40,0.00,,,0.00,596.000000,,2013-09-23 01:43:00,
2013-09-22 18:52:00,62.0,37.0,-100.00,WNW,288,16.0,25.0,40,0.00,,,0.00,596.000000,,2013-09-23 01:52:00,
2013-09-22 21:24:00,54.0,39.0,-100.00,WNW,292,5.0,11.0,56,-99.99,,,0.00,0.000000,,2013-09-23 04:24:00,
2013-09-22 21:34:00,54.0,39.0,-100.00,WNW,292,5.0,11.0,56,-99.99,,,0.00,0.000000,,2013-09-23 04:34:00,
2013-09-22 22:00:00,51.0,37.0,-100.00,WNW,292,7.0,10.0,58,-99.99,,,0.00,0.000000,,2013-09-23 05:00:00,
2013-09-22 22:23:00,51.0,37.0,-100.00,WNW,292,7.0,10.0,58,-99.99,,,0.00,0.000000,,2013-09-23 05:23:00,
2013-09-22 22:34:00,51.0,37.0,-100.00,WNW,292,7.0,10.0,58,-99.99,,,0.00,0.000000,,2013-09-23 05:34:00,
2013-09-22 22:53:00,51.0,37.0,-100.00,WNW,292,7.0,10.0,58,-99.99,,,0.00,0.000000,,2013-09-23 05:53:00,
2013-09-22 23:00:00,52.0,39.0,-100.00,WNW,291,7.0,11.0,60,0.00,,,0.00,0.000000,,2013-09-23 06:00:00,
2013-09-22 23:22:00,52.0,39.0,-100.00,WNW,291,7.0,11.0,60,0.00,,,0.00,0.000000,,2013-09-23 06:22:00,
2013-09-22 23:32:00,52.0,39.0,-100.00,WNW,291,7.0,11.0,60,0.00,,,0.00,0.000000,,2013-09-23 06:32:00,
2013-09-22 23:42:00,52.0,39.0,-100.00,WNW,291,7.0,11.0,60,0.00,,,0.00,0.000000,,2013-09-23 06:42:00,
2013-09-22 23:52:00,52.0,39.0,-100.00,WNW,291,7.0,11.0,60,0.00,,,0.00,0.000000,,2013-09-23 06:52:00,